SCP
0 0 0 0 0 0 0 -0 -0 -0 -0 -0 -0 -0 -0 -0 -0 -0 -0 -0 -0 0 0 -0 -0 0 0 -0 -0 -0 -0 -0 -0 -0 -0 -0 -0 -0 -0 -0 -0 0 0
-0 0 0 0 0 0 0 -0 -0 -0 -0 -0 -0 -0 -0 -0 -0 -0 -0 -0 0 0 0 0 0 0 0 0 0 0 0 0 0 0 0 0 0 0 -0 0 0 0 0
0 -0 -0 0 0 0 0 -0 -0 -0 -0 -0 -0 -0 -0 -0 0 0 0 0 0 0 0 0 0 0 0 0 0 0 0 0 0 0 0 0 0 0 0 0 0 0 0
0 0 0 0 0 0 0 -0 -0 0 0 0 0 0 0 0 0 0 0 0 0 0 0 0 0 0 0 0 0 0 0 0 0 0 0 0 0 0 0 0 0 0 0
-0 -0 0 -0 -0 -0 0 0 0 0 0 0 0 0 0 0 0 0 0 0 0 0 0 0 0 0 0 0 0 0 0 0 0 0 0 0 0 0 0 0 0 0 0
0 0 -0 -0 0 0 0 0 0 0 0 0 0 0 0 0 0 0 0 0 0 0 0 0 0 0 0 0 0 0 0 0 0 0 0 0 0 0 0 0 0 0 0
0 -0 0 0 0 0 0 0 0 0 0 0 0 0 0 0 0 0 0 0 0 0 0 0 0 0 0 0 0 0 -0 0 0 0 0 0 0 0 0 0 0 0 0
-0 -0 -0 -0 -0 0 0 0 0 0 0 0 0 0 1 0 0 0 0 0 0 0 0 0 0 0 0 0 0 0 0 0 0 0 0 0 0 0 0 0 0 0 0
-0 0 0 -0 0 -0 -0 -0 0 -0 0 0 0 0 0 1 1 1 0 0 0 0 0 0 0 0 0 0 0 0 0 0 0 0 0 0 0 0 0 0 0 0 0
0 0 0 0 0 1 0 0 0 0 0 0 0 1 1 1 0 0 0 0 0 0 0 0 0 0 0 0 0 0 0 0 0 0 0 0 0 0 0 0 0 0 0
0 0 0 0 0 0 0 0 0 0 1 1 1 1 1 1 1 0 1 0 0 0 1 1 0 0 0 0 0 0 0 0 0 0 0 0 0 0 0 0 0 0 0
0 0 0 0 0 0 0 0 1 0 1 1 1 1 1 1 1 1 0 0 0 0 0 1 0 0 0 0 0 0 0 0 0 0 0 0 0 0 0 0 0 0 0
0 0 0 0 0 0 0 0 0 0 0 0 0 0 0 0 0 0 0 1 1 1 1 1 1 1 0 0 0 0 0 0 0 0 0 0 0 0 0 0 0 0 0
0 0 0 0 0 0 0 0 0 0 0 0 0 0 0 0 0 0 0 0 0 1 1 1 1 1 1 0 0 0 0 0 0 0 0 0 0 0 1 1 0 0 0
-0 0 0 -0 -0 -0 0 0 0 0 0 0 0 0 0 0 0 0 0 0 0 0 0 1 1 1 1 0 0 0 0 0 0 0 0 0 0 1 1 1 1 1 0
-0 0 0 0 -0 -0 -0 -0 0 0 0 0 0 0 0 0 0 0 0 0 0 0 0 0 1 1 0 0 0 0 0 0 0 0 0 0 1 1 1 1 1 1 1
-0 0 0 0 0 -0 -0 0 -0 0 0 0 0 0 0 0 0 0 0 0 0 0 0 0 1 1 1 0 0 0 0 0 0 0 0 0 1 1 1 2 2 2 1
0 -0 -0 -0 -0 -0 -0 -0 -0 -0 0 0 0 0 0 0 0 0 0 0 0 0 1 1 1 1 1 1 1 0 0 0 0 0 0 0 1 2 2 2 3 3 2
0 0 -0 -0 -0 -0 -0 -0 -0 -0 0 0 0 0 0 0 0 0 0 1 1 0 0 1 1 0 0 0 0 0 0 0 0 0 0 0 0 2 2 3 3 3 3
0 0 0 0 -0 -0 -0 -0 -0 -0 0 0 0 0 0 0 0 0 0 0 0 0 1 1 1 1 0 0 1 1 0 0 0 0 0 0 0 0 1 2 4 4 3
0 0 0 0 0 0 -0 -0 -0 -0 -0 0 0 0 0 0 0 0 0 0 0 0 0 1 1 1 1 1 1 0 0 0 0 0 0 0 0 0 0 1 2 5 5
0 0 0 0 0 0 0 -0 -0 -0 -0 -0 -0 0 0 0 0 0 0 0 0 0 0 0 1 1 1 1 1 0 0 0 0 0 0 0 0 0 0 1 2 3 4
0 0 0 0 0 0 0 0 0 0 -0 -0 -0 0 0 0 0 0 0 0 0 0 0 0 0 0 1 1 0 1 0 0 0 0 0 0 0 0 0 1 2 2 1
0 0 0 0 0 0 0 0 0 0 0 -0 -0 -0 -0 0 0 0 0 0 0 0 0 0 0 0 1 1 1 0 1 0 0 0 0 0 0 0 0 1 1 0 0
0 0 0 0 0 0 0 0 0 0 -0 -0 -0 -0 -0 0 0 0 0 0 0 0 0 0 0 0 0 0 0 1 0 0 0 0 0 0 0 0 0 0 0 0 0
0 0 0 0 0 0 0 0 0 0 0 -0 -0 -0 -0 -0 0 0 0 0 0 0 0 0 0 0 0 0 0 1 1 0 1 1 1 0 0 0 0 0 0 0 0
Wind_Speed_500mb
22 23 22 20 24 27 27 26 28 30 30 31 29 27 27 27 28 33 36 34 30 27 26 25 23 21 18 14 11 11 9 7 6 8 10 16 21 26 32 33 34 33 30
22 25 20 17 21 25 26 26 25 26 26 28 28 27 26 27 28 28 28 25 22 21 21 20 19 16 15 13 10 8 7 8 4 3 3 5 17 20 25 30 30 30 27
24 27 21 17 18 23 26 24 23 24 24 23 24 22 22 24 25 24 23 21 19 18 17 16 16 15 13 12 11 10 8 10 11 7 5 5 4 11 17 23 27 28 26
31 28 21 18 17 18 22 23 22 21 21 19 19 19 17 17 17 18 19 18 16 15 14 14 13 12 12 13 12 12 11 12 12 16 11 5 8 8 10 16 22 25 26
29 25 19 19 16 16 19 22 21 20 17 16 14 13 13 11 12 12 11 10 10 11 11 11 11 11 12 13 13 13 12 13 14 16 16 13 4 6 8 12 16 19 25
21 22 22 17 13 13 17 19 21 19 17 13 12 13 11 9 8 8 9 10 11 11 12 12 13 13 13 14 14 14 14 16 17 18 17 18 13 15 19 15 14 14 20
18 21 19 15 10 8 10 13 16 17 15 14 12 13 13 12 11 12 12 12 13 14 14 15 16 17 17 18 18 18 18 19 21 24 26 27 24 26 25 23 19 15 18
16 18 16 15 13 9 5 4 3 3 7 11 13 15 16 17 17 17 18 18 19 20 20 20 20 21 22 23 23 22 21 22 24 28 30 32 31 28 31 32 27 19 17
20 16 15 12 10 7 7 5 5 4 4 7 11 17 21 23 24 26 26 26 26 26 26 26 25 25 26 27 28 29 27 27 28 29 32 32 34 31 32 36 35 26 21
22 14 8 5 6 3 3 5 3 3 4 5 10 18 24 28 30 33 33 33 32 33 33 33 32 31 31 31 33 34 33 34 32 31 35 38 37 38 33 40 44 35 27
30 21 17 16 10 4 4 10 6 7 7 5 17 22 28 31 31 34 37 37 38 38 37 37 36 36 37 38 39 39 39 39 36 35 36 36 38 42 42 42 50 45 34
36 29 18 15 13 15 6 6 7 9 12 15 25 28 26 28 33 38 40 41 40 39 36 37 39 39 41 45 46 45 45 41 40 36 36 37 41 43 42 42 53 51 40
27 21 15 16 15 11 5 3 7 14 18 18 18 19 29 32 31 33 39 47 47 41 39 37 35 34 33 34 41 51 49 46 46 39 35 34 38 45 44 46 55 55 45
31 30 20 20 21 19 15 6 7 16 17 18 21 22 28 25 34 33 44 45 43 36 32 33 38 37 40 37 33 34 44 40 40 43 40 33 37 43 51 53 56 59 50
31 29 29 27 28 28 25 24 20 14 17 22 24 29 30 34 39 42 52 47 46 43 39 38 40 41 47 46 46 39 35 40 38 44 49 42 37 36 42 44 56 60 55
40 38 39 42 44 42 39 39 37 32 22 21 29 31 30 36 39 49 49 47 53 54 53 52 49 52 54 47 45 54 49 45 43 37 48 47 49 53 50 46 54 63 60
37 35 43 53 53 59 52 48 48 45 34 24 23 28 35 35 38 39 48 51 51 52 53 54 50 56 59 58 54 47 45 53 57 49 47 48 50 56 59 53 58 61 64
33 27 31 41 51 55 55 51 57 54 43 37 31 27 29 31 32 38 43 49 54 53 58 56 61 58 60 63 63 64 63 51 54 59 58 54 57 64 61 58 61 63 65
26 24 29 34 39 45 50 56 69 64 49 41 38 38 38 38 37 37 40 45 53 58 65 67 66 68 68 73 74 65 59 59 59 57 62 60 63 63 65 65 67 72 76
21 23 30 30 38 40 41 50 63 73 60 48 44 43 42 40 40 39 40 43 47 52 62 64 73 71 70 72 73 62 63 65 64 63 64 64 66 70 73 72 72 75 78
15 22 24 31 40 38 40 46 56 66 61 64 57 52 48 47 48 48 46 42 41 45 48 63 67 69 68 68 73 72 72 72 72 71 76 75 69 69 68 69 74 81 85
19 19 23 39 38 32 37 43 51 62 62 65 64 70 63 55 52 55 59 59 54 51 49 53 56 63 68 67 66 72 72 72 76 72 66 69 70 81 79 71 72 76 78
15 20 38 39 30 28 36 42 51 58 58 68 76 80 73 69 65 64 64 64 65 60 58 55 52 55 60 65 63 63 30 40 63 68 60 49 48 60 64 66 69 63 64
16 32 34 28 26 32 38 40 46 52 64 74 78 80 83 86 84 75 70 65 61 60 62 64 58 53 51 58 71 66 65 68 63 61 61 47 41 42 41 38 37 45 55
30 28 26 20 24 32 36 45 53 60 64 70 76 84 86 91 95 91 85 76 69 66 61 57 60 56 57 55 54 69 74 64 66 72 72 69 67 68 61 56 57 58 59
28 27 11 17 28 32 42 51 58 62 66 74 83 95 104 106 98 85 81 78 75 73 72 69 58 51 55 57 58 55 63 61 67 63 69 80 77 74 64 64 53 49 50
Wind_Direction_500mb
187 161 148 155 158 154 144 135 129 133 137 134 131 132 134 137 144 148 149 149 146 141 144 148 148 146 149 152 149 150 134 134 113 80 90 63 47 42 43 41 37 39 45
213 177 161 163 163 159 153 144 134 131 137 135 134 134 135 137 143 149 151 153 149 144 144 147 152 151 155 162 165 171 191 212 186 72 119 62 28 26 36 36 32 30 37
209 189 173 174 172 163 160 154 146 136 137 139 135 135 139 141 145 151 157 159 160 161 164 163 158 160 168 179 184 187 198 218 225 215 175 170 71 30 23 29 25 19 23
194 185 180 184 179 170 166 163 158 149 144 147 145 142 144 145 146 152 160 163 165 174 179 175 174 177 184 191 196 196 199 212 217 210 216 238 252 350 356 14 19 10 8
167 174 185 188 183 173 169 172 169 164 156 152 159 158 156 159 156 159 166 177 184 193 195 196 199 199 204 210 211 211 213 219 229 225 238 232 282 263 299 330 1 3 357
168 166 174 186 173 171 169 175 177 179 173 169 178 181 186 190 196 198 202 208 214 216 215 219 223 223 223 227 228 225 227 231 235 239 238 245 268 271 274 273 312 343 344
152 162 161 147 131 137 164 176 181 186 191 193 201 212 213 219 227 239 242 245 249 250 246 243 242 241 237 238 238 233 232 234 239 242 243 247 257 269 266 265 281 309 324
148 154 152 153 139 128 130 103 113 189 222 229 230 233 232 238 247 252 255 255 258 258 256 256 259 257 256 254 252 247 242 241 238 241 247 245 256 274 257 257 264 283 296
153 168 165 151 138 141 139 157 161 165 206 250 261 261 258 250 250 256 261 263 262 261 261 260 259 260 260 260 261 260 256 250 246 243 239 241 256 270 258 254 256 269 275
121 112 89 109 114 46 256 203 219 203 223 263 293 285 273 262 262 262 261 262 263 265 266 263 261 261 262 260 259 259 259 258 255 252 248 250 256 253 258 252 251 260 265
81 116 75 63 49 342 208 205 271 273 279 294 309 293 275 270 268 268 269 268 266 264 263 263 264 265 266 266 263 261 260 258 257 257 257 253 252 248 259 257 248 254 258
72 70 65 77 56 24 71 157 200 265 270 291 310 288 280 276 270 270 269 266 264 260 257 255 256 261 264 268 269 268 266 268 264 258 252 260 254 248 253 262 244 248 256
48 55 50 29 21 30 5 316 242 211 254 264 293 295 286 287 279 290 285 272 262 256 258 262 264 264 272 276 271 265 268 270 266 255 249 263 250 242 255 264 245 246 253
41 51 45 31 20 15 19 27 265 257 263 262 270 285 294 287 294 295 288 280 265 254 253 266 272 271 271 273 277 278 261 259 268 248 243 252 257 261 265 265 248 244 252
20 17 22 13 8 360 352 347 337 306 271 252 255 265 271 281 283 286 284 281 273 269 265 264 266 270 275 270 270 271 260 256 267 255 244 254 256 264 264 256 241 244 252
350 352 0 357 355 348 343 339 336 331 314 279 261 263 268 269 276 281 273 273 283 259 272 267 266 271 271 276 270 270 265 263 260 269 249 253 262 270 265 248 245 246 252
9 3 358 357 351 345 338 332 333 330 320 302 278 273 273 271 275 285 269 274 281 272 266 269 266 270 268 269 264 263 266 259 260 256 259 264 269 274 271 258 251 254 255
355 1 358 356 352 351 348 347 347 337 321 307 295 281 280 280 285 278 268 272 272 265 268 265 262 267 265 270 270 266 268 266 260 256 255 262 269 272 272 273 264 260 259
343 346 350 354 352 350 348 350 349 347 335 323 311 297 286 291 289 287 284 278 278 268 256 259 262 264 269 273 271 267 262 269 264 261 256 259 271 271 270 269 271 272 268
326 335 345 344 345 343 343 344 349 351 346 338 329 318 308 300 298 294 286 282 277 276 269 263 263 264 266 277 264 263 266 271 266 262 260 258 263 269 266 267 269 271 272
310 326 331 336 337 332 335 343 346 351 354 352 340 329 324 313 294 290 288 288 279 278 265 254 259 264 264 265 267 267 264 267 269 266 261 260 260 261 266 267 269 271 272
327 324 328 333 324 322 333 338 339 340 343 343 343 340 328 317 313 304 295 287 285 286 280 266 260 262 263 261 260 262 270 273 264 265 268 268 267 260 266 268 266 274 273
330 331 331 323 312 323 328 330 331 331 333 335 335 334 331 326 315 308 306 302 289 279 280 278 280 270 264 262 261 255 259 252 270 276 281 284 279 270 271 274 274 274 272
338 334 327 314 313 318 325 326 326 326 328 333 334 329 324 322 317 308 302 301 296 287 275 271 275 275 273 268 265 262 256 258 269 284 275 278 280 274 276 289 285 274 267
336 337 328 302 306 316 319 318 321 323 325 327 325 322 318 315 312 306 301 297 291 288 276 270 266 267 268 265 265 265 265 263 263 263 273 276 275 277 278 283 279 279 281
335 323 319 303 310 313 317 319 319 319 319 317 319 318 316 315 310 301 296 294 290 281 274 269 262 260 260 262 261 261 264 264 261 264 264 270 274 275 280 285 286 285 289
Wind_Speed_850mb
22 23 22 20 24 27 27 26 28 30 30 31 29 27 27 27 28 33 36 34 30 27 26 25 23 21 18 14 11 11 9 7 6 8 10 16 21 26 32 33 34 33 30
22 25 20 17 21 25 26 26 25 26 26 28 28 27 26 27 28 28 28 25 22 21 21 20 19 16 15 13 10 8 7 8 4 3 3 5 17 20 25 30 30 30 27
24 27 21 17 18 23 26 24 23 24 24 23 24 22 22 24 25 24 23 21 19 18 17 16 16 15 13 12 11 10 8 10 11 7 5 5 4 11 17 23 27 28 26
31 28 21 18 17 18 22 23 22 21 21 19 19 19 17 17 17 18 19 18 16 15 14 14 13 12 12 13 12 12 11 12 12 16 11 5 8 8 10 16 22 25 26
29 25 19 19 16 16 19 22 21 20 17 16 14 13 13 11 12 12 11 10 10 11 11 11 11 11 12 13 13 13 12 13 14 16 16 13 4 6 8 12 16 19 25
21 22 22 17 13 13 17 19 21 19 17 13 12 13 11 9 8 8 9 10 11 11 12 12 13 13 13 14 14 14 14 16 17 18 17 18 13 15 19 15 14 14 20
18 21 19 15 10 8 10 13 16 17 15 14 12 13 13 12 11 12 12 12 13 14 14 15 16 17 17 18 18 18 18 19 21 24 26 27 24 26 25 23 19 15 18
16 18 16 15 13 9 5 4 3 3 7 11 13 15 16 17 17 17 18 18 19 20 20 20 20 21 22 23 23 22 21 22 24 28 30 32 31 28 31 32 27 19 17
20 16 15 12 10 7 7 5 5 4 4 7 11 17 21 23 24 26 26 26 26 26 26 26 25 25 26 27 28 29 27 27 28 29 32 32 34 31 32 36 35 26 21
22 14 8 5 6 3 3 5 3 3 4 5 10 18 24 28 30 33 33 33 32 33 33 33 32 31 31 31 33 34 33 34 32 31 35 38 37 38 33 40 44 35 27
30 21 17 16 10 4 4 10 6 7 7 5 17 22 28 31 31 34 37 37 38 38 37 37 36 36 37 38 39 39 39 39 36 35 36 36 38 42 42 42 50 45 34
36 29 18 15 13 15 6 6 7 9 12 15 25 28 26 28 33 38 40 41 40 39 36 37 39 39 41 45 46 45 45 41 40 36 36 37 41 43 42 42 53 51 40
27 21 15 16 15 11 5 3 7 14 18 18 18 19 29 32 31 33 39 47 47 41 39 37 35 34 33 34 41 51 49 46 46 39 35 34 38 45 44 46 55 55 45
31 30 20 20 21 19 15 6 7 16 17 18 21 22 28 25 34 33 44 45 43 36 32 33 38 37 40 37 33 34 44 40 40 43 40 33 37 43 51 53 56 59 50
31 29 29 27 28 28 25 24 20 14 17 22 24 29 30 34 39 42 52 47 46 43 39 38 40 41 47 46 46 39 35 40 38 44 49 42 37 36 42 44 56 60 55
40 38 39 42 44 42 39 39 37 32 22 21 29 31 30 36 39 49 49 47 53 54 53 52 49 52 54 47 45 54 49 45 43 37 48 47 49 53 50 46 54 63 60
37 35 43 53 53 59 52 48 48 45 34 24 23 28 35 35 38 39 48 51 51 52 53 54 50 56 59 58 54 47 45 53 57 49 47 48 50 56 59 53 58 61 64
33 27 31 41 51 55 55 51 57 54 43 37 31 27 29 31 32 38 43 49 54 53 58 56 61 58 60 63 63 64 63 51 54 59 58 54 57 64 61 58 61 63 65
26 24 29 34 39 45 50 56 69 64 49 41 38 38 38 38 37 37 40 45 53 58 65 67 66 68 68 73 74 65 59 59 59 57 62 60 63 63 65 65 67 72 76
21 23 30 30 38 40 41 50 63 73 60 48 44 43 42 40 40 39 40 43 47 52 62 64 73 71 70 72 73 62 63 65 64 63 64 64 66 70 73 72 72 75 78
15 22 24 31 40 38 40 46 56 66 61 64 57 52 48 47 48 48 46 42 41 45 48 63 67 69 68 68 73 72 72 72 72 71 76 75 69 69 68 69 74 81 85
19 19 23 39 38 32 37 43 51 62 62 65 64 70 63 55 52 55 59 59 54 51 49 53 56 63 68 67 66 72 72 72 76 72 66 69 70 81 79 71 72 76 78
15 20 38 39 30 28 36 42 51 58 58 68 76 80 73 69 65 64 64 64 65 60 58 55 52 55 60 65 63 63 30 40 63 68 60 49 48 60 64 66 69 63 64
16 32 34 28 26 32 38 40 46 52 64 74 78 80 83 86 84 75 70 65 61 60 62 64 58 53 51 58 71 66 65 68 63 61 61 47 41 42 41 38 37 45 55
30 28 26 20 24 32 36 45 53 60 64 70 76 84 86 91 95 91 85 76 69 66 61 57 60 56 57 55 54 69 74 64 66 72 72 69 67 68 61 56 57 58 59
28 27 11 17 28 32 42 51 58 62 66 74 83 95 104 106 98 85 81 78 75 73 72 69 58 51 55 57 58 55 63 61 67 63 69 80 77 74 64 64 53 49 50
Wind_Direction_850mb
187 161 148 155 158 154 144 135 129 133 137 134 131 132 134 137 144 148 149 149 146 141 144 148 148 146 149 152 149 150 134 134 113 80 90 63 47 42 43 41 37 39 45
213 177 161 163 163 159 153 144 134 131 137 135 134 134 135 137 143 149 151 153 149 144 144 147 152 151 155 162 165 171 191 212 186 72 119 62 28 26 36 36 32 30 37
209 189 173 174 172 163 160 154 146 136 137 139 135 135 139 141 145 151 157 159 160 161 164 163 158 160 168 179 184 187 198 218 225 215 175 170 71 30 23 29 25 19 23
194 185 180 184 179 170 166 163 158 149 144 147 145 142 144 145 146 152 160 163 165 174 179 175 174 177 184 191 196 196 199 212 217 210 216 238 252 350 356 14 19 10 8
167 174 185 188 183 173 169 172 169 164 156 152 159 158 156 159 156 159 166 177 184 193 195 196 199 199 204 210 211 211 213 219 229 225 238 232 282 263 299 330 1 3 357
168 166 174 186 173 171 169 175 177 179 173 169 178 181 186 190 196 198 202 208 214 216 215 219 223 223 223 227 228 225 227 231 235 239 238 245 268 271 274 273 312 343 344
152 162 161 147 131 137 164 176 181 186 191 193 201 212 213 219 227 239 242 245 249 250 246 243 242 241 237 238 238 233 232 234 239 242 243 247 257 269 266 265 281 309 324
148 154 152 153 139 128 130 103 113 189 222 229 230 233 232 238 247 252 255 255 258 258 256 256 259 257 256 254 252 247 242 241 238 241 247 245 256 274 257 257 264 283 296
153 168 165 151 138 141 139 157 161 165 206 250 261 261 258 250 250 256 261 263 262 261 261 260 259 260 260 260 261 260 256 250 246 243 239 241 256 270 258 254 256 269 275
121 112 89 109 114 46 256 203 219 203 223 263 293 285 273 262 262 262 261 262 263 265 266 263 261 261 262 260 259 259 259 258 255 252 248 250 256 253 258 252 251 260 265
81 116 75 63 49 342 208 205 271 273 279 294 309 293 275 270 268 268 269 268 266 264 263 263 264 265 266 266 263 261 260 258 257 257 257 253 252 248 259 257 248 254 258
72 70 65 77 56 24 71 157 200 265 270 291 310 288 280 276 270 270 269 266 264 260 257 255 256 261 264 268 269 268 266 268 264 258 252 260 254 248 253 262 244 248 256
48 55 50 29 21 30 5 316 242 211 254 264 293 295 286 287 279 290 285 272 262 256 258 262 264 264 272 276 271 265 268 270 266 255 249 263 250 242 255 264 245 246 253
41 51 45 31 20 15 19 27 265 257 263 262 270 285 294 287 294 295 288 280 265 254 253 266 272 271 271 273 277 278 261 259 268 248 243 252 257 261 265 265 248 244 252
20 17 22 13 8 360 352 347 337 306 271 252 255 265 271 281 283 286 284 281 273 269 265 264 266 270 275 270 270 271 260 256 267 255 244 254 256 264 264 256 241 244 252
350 352 0 357 355 348 343 339 336 331 314 279 261 263 268 269 276 281 273 273 283 259 272 267 266 271 271 276 270 270 265 263 260 269 249 253 262 270 265 248 245 246 252
9 3 358 357 351 345 338 332 333 330 320 302 278 273 273 271 275 285 269 274 281 272 266 269 266 270 268 269 264 263 266 259 260 256 259 264 269 274 271 258 251 254 255
355 1 358 356 352 351 348 347 347 337 321 307 295 281 280 280 285 278 268 272 272 265 268 265 262 267 265 270 270 266 268 266 260 256 255 262 269 272 272 273 264 260 259
343 346 350 354 352 350 348 350 349 347 335 323 311 297 286 291 289 287 284 278 278 268 256 259 262 264 269 273 271 267 262 269 264 261 256 259 271 271 270 269 271 272 268
326 335 345 344 345 343 343 344 349 351 346 338 329 318 308 300 298 294 286 282 277 276 269 263 263 264 266 277 264 263 266 271 266 262 260 258 263 269 266 267 269 271 272
310 326 331 336 337 332 335 343 346 351 354 352 340 329 324 313 294 290 288 288 279 278 265 254 259 264 264 265 267 267 264 267 269 266 261 260 260 261 266 267 269 271 272
327 324 328 333 324 322 333 338 339 340 343 343 343 340 328 317 313 304 295 287 285 286 280 266 260 262 263 261 260 262 270 273 264 265 268 268 267 260 266 268 266 274 273
330 331 331 323 312 323 328 330 331 331 333 335 335 334 331 326 315 308 306 302 289 279 280 278 280 270 264 262 261 255 259 252 270 276 281 284 279 270 271 274 274 274 272
338 334 327 314 313 318 325 326 326 326 328 333 334 329 324 322 317 308 302 301 296 287 275 271 275 275 273 268 265 262 256 258 269 284 275 278 280 274 276 289 285 274 267
336 337 328 302 306 316 319 318 321 323 325 327 325 322 318 315 312 306 301 297 291 288 276 270 266 267 268 265 265 265 265 263 263 263 273 276 275 277 278 283 279 279 281
335 323 319 303 310 313 317 319 319 319 319 317 319 318 316 315 310 301 296 294 290 281 274 269 262 260 260 262 261 261 264 264 261 264 264 270 274 275 280 285 286 285 289